Location: Unspecified
(0.0000°N, 0.0000°E)
Time: 06:29:45
(UTC+00:00)

Tiros 1 - Pass Details

Date: 22 November 2019
Orbit: 630 x 664 km, 48.4° (Epoch: 11 December)

Event Time Altitude Azimuth Distance (km) Brightness Sun altitude
Rises 09:36:52 0° 213° (SSW) 2,952 10.6 52.5°
Reaches altitude 10° 09:39:14 10° 210° (SSW) 2,035 9.9 53.0°
Maximum altitude 09:43:52 64° 129° (SE) 707 9.8 54.0°
Drops below altitude 10° 09:48:27 10° 47° (NE) 2,008 9.9 54.9°
Sets 09:50:46 0° 44° (NE) 2,909 10.6 55.4°
